Location: Trenton
(45.6167°N, 62.6167°W)
Time: 22:22:58
(UTC+00:00)

Nauka - Visible Passes

Search period start: 28 September 2021 00:00
Search period end: 08 October 2021 00:00
Orbit: 417 x 423 km, 51.6° (Epoch: 28 September)

Date Brightness Start Highest point End Pass type
(mag) Time Alt. Az. Time Alt. Az. Time Alt. Az.
28 Sep ? 00:32:09 10° WNW 00:33:36 23° NW 00:33:36 23° NW visible
28 Sep ? 23:44:52 10° NW 23:48:04 43° NNE 23:48:04 43° NNE visible
29 Sep ? 22:57:32 10° NW 23:00:41 35° NNE 23:02:32 19° ENE visible
30 Sep ? 00:34:19 10° WNW 00:35:30 20° WNW 00:35:30 20° WNW visible
30 Sep ? 23:46:58 10° WNW 23:50:00 70° NW 23:50:00 70° NW visible
01 Oct ? 22:59:38 10° WNW 23:02:59 59° NNE 23:04:33 27° E visible
02 Oct ? 00:36:46 10° W 00:37:32 15° W 00:37:32 15° W visible
02 Oct ? 22:12:18 10° NW 22:15:33 43° NNE 22:18:47 10° E visible
02 Oct ? 23:49:11 10° WNW 23:52:08 39° SW 23:52:08 39° SW visible
03 Oct ? 23:01:44 10° WNW 23:05:04 63° SSW 23:06:49 25° SE visible
04 Oct ? 22:14:20 10° WNW 22:17:42 85° NNE 22:21:04 10° ESE visible
04 Oct ? 23:51:59 10° W 23:54:08 16° SW 23:54:35 16° SW visible
05 Oct ? 23:04:06 10° W 23:06:55 25° SW 23:09:29 11° SSE visible
06 Oct ? 22:16:28 10° WNW 22:19:39 39° SW 22:22:48 10° SSE visible
